Location: Mascot Post Office (historical)
(40.2645°N, 99.5462°W)
Time: 17:22:24
(UTC+00:00)

SL-08 R/B - Pass Details

Date: 14 July 2020
Orbit: 943 x 1009 km, 83.0° (Epoch: 04 August)

Event Time Altitude Azimuth Distance (km) Brightness Sun altitude
Exits shadow 08:26:57 46° 175° (S) 1,289 4.7 -23.7°
Maximum altitude 08:28:59 81° 95° (E) 986 4.5 -23.5°
Drops below altitude 10° 08:35:10 10° 9° (N) 2,700 7.8 -23.0°
Sets 08:37:39 0° 9° (N) 3,642 8.7 -22.7°
